Find Starlink 5632

NORAD ID: 55400 Int'l Des: 2023-014 Owner: SPXS Country: US Constellation: starlink operational
LEOCIRCULAR

实时位置

正在加载3D地球...

关于 Starlink 5632

正在加载描述...

即将过境

Passes for default location (London). Set your location on the main map for personalized predictions.

高度历史

Loading altitude history...

两行轨道根数

1 55400U 23014K 26121.22009787 .00001322 00000-0 11858-3 0 9995
2 55400 69.9983 292.0143 0002933 266.7936 93.2887 14.98333327179925
Epoch: May 1, 2026 • Age: 7 hours

当前状态

高度 583.9 km
速度 7.57 km/s
星下点 61.35°N, 66.59°W
发射日期 Jan 31, 2023
运行时间 3.2 years
类型 internet

技术详情

分类 Payload
质量 305.00 kg
干质量 290.00 kg
总质量 305.00 kg
长度 0.20 m
直径 2.80 m
跨度 9.00 m
形状 Box + pan
制造商 SPXS
平台类型 Starlink
阶段状态 In Orbit
所有者/国家 SPXS/US

Most Searched